GLO1362 SBFL-SBSP

Flight info

Callsign GLO1362
Flight time 0h 49m
Altitude 35000
Route UBROS UM540 ANISE
Aircraft B738/M-SDE2E3FGHIRWXY/LB1

Departure

Time 2026-04-25 01:15
Airport Hercílio Luz International Airport (SBFL)

Arrival

Time 2026-04-25 02:04
Airport Congonhas–Deputado Freitas Nobre Airport (SBSP)
Time Latitude Longitude Altitude Speed Heading
2026-04-25 00:25 -27.67307 -48.54504 26 ft 0 kts 211°
2026-04-25 00:59 -27.67304 -48.54503 26 ft 0 kts 211°
2026-04-25 01:00 -27.67303 -48.54502 26 ft 1 kts 211°
2026-04-25 01:00 -27.67296 -48.54498 26 ft 1 kts 211°
2026-04-25 01:00 -27.67290 -48.54493 26 ft 1 kts 211°
2026-04-25 01:01 -27.67284 -48.54489 32 ft 1 kts 211°
2026-04-25 01:01 -27.67278 -48.54485 32 ft 1 kts 221°
2026-04-25 01:01 -27.67273 -48.54480 31 ft 1 kts 225°
2026-04-25 01:01 -27.67269 -48.54473 30 ft 1 kts 262°
2026-04-25 01:02 -27.67269 -48.54465 28 ft 1 kts 290°
2026-04-25 01:02 -27.67270 -48.54462 27 ft 1 kts 297°
2026-04-25 01:02 -27.67268 -48.54467 30 ft 1 kts 289°
2026-04-25 01:02 -27.67266 -48.54472 30 ft 1 kts 291°
2026-04-25 01:03 -27.67265 -48.54475 30 ft 0 kts 295°
2026-04-25 01:06 -27.67263 -48.54479 31 ft 2 kts 295°
2026-04-25 01:07 -27.67244 -48.54504 27 ft 6 kts 327°
2026-04-25 01:07 -27.67207 -48.54538 30 ft 7 kts 311°
2026-04-25 01:07 -27.67181 -48.54582 30 ft 7 kts 302°
2026-04-25 01:07 -27.67149 -48.54618 27 ft 7 kts 341°
2026-04-25 01:08 -27.67105 -48.54606 28 ft 7 kts 30°
2026-04-25 01:08 -27.67065 -48.54584 27 ft 6 kts
2026-04-25 01:08 -27.67033 -48.54615 28 ft 6 kts 300°
2026-04-25 01:08 -27.67011 -48.54659 27 ft 6 kts 301°
2026-04-25 01:09 -27.66989 -48.54700 26 ft 6 kts 302°
2026-04-25 01:09 -27.66967 -48.54740 30 ft 6 kts 302°
2026-04-25 01:09 -27.66945 -48.54780 27 ft 6 kts 302°
2026-04-25 01:09 -27.66924 -48.54819 29 ft 6 kts 301°
2026-04-25 01:10 -27.66902 -48.54858 26 ft 6 kts 301°
2026-04-25 01:10 -27.66882 -48.54896 30 ft 6 kts 301°
2026-04-25 01:10 -27.66861 -48.54934 26 ft 6 kts 301°
2026-04-25 01:10 -27.66839 -48.54977 28 ft 7 kts 300°
2026-04-25 01:11 -27.66812 -48.55028 28 ft 8 kts 300°
2026-04-25 01:11 -27.66781 -48.55085 29 ft 9 kts 312°
2026-04-25 01:11 -27.66723 -48.55117 26 ft 10 kts 344°
2026-04-25 01:11 -27.66717 -48.55119 26 ft 0 kts 345°
2026-04-25 01:13 -27.66716 -48.55119 26 ft 1 kts 345°
2026-04-25 01:13 -27.66702 -48.55124 29 ft 4 kts 345°
2026-04-25 01:13 -27.66665 -48.55135 29 ft 7 kts 345°
2026-04-25 01:13 -27.66609 -48.55130 28 ft 7 kts 27°
2026-04-25 01:14 -27.66592 -48.55092 26 ft 6 kts 95°
2026-04-25 01:14 -27.66596 -48.55082 25 ft 0 kts 116°
2026-04-25 01:14 -27.66618 -48.55035 29 ft 32 kts 119°
2026-04-25 01:14 -27.66872 -48.54561 27 ft 107 kts 122°
2026-04-25 01:15 -27.67372 -48.53626 28 ft 169 kts 119°
2026-04-25 01:15 -27.68000 -48.52452 706 ft 168 kts 121°
2026-04-25 01:15 -27.68637 -48.51308 1435 ft 176 kts 119°
2026-04-25 01:15 -27.69293 -48.50086 1964 ft 195 kts 117°
2026-04-25 01:16 -27.69988 -48.48654 2123 ft 219 kts 107°
2026-04-25 01:16 -27.70050 -48.46958 2427 ft 221 kts 68°
2026-04-25 01:16 -27.69130 -48.45609 2749 ft 221 kts 25°
2026-04-25 01:16 -27.67721 -48.44966 3441 ft 218 kts 19°
2026-04-25 01:17 -27.66300 -48.44319 4048 ft 223 kts 20°
2026-04-25 01:17 -27.65345 -48.43857 4407 ft 227 kts 21°
2026-04-25 01:17 -27.63391 -48.42857 5169 ft 233 kts 22°
2026-04-25 01:17 -27.61921 -48.42063 5761 ft 236 kts 24°
2026-04-25 01:18 -27.60447 -48.41242 5972 ft 239 kts 24°
2026-04-25 01:18 -27.58972 -48.40402 6000 ft 237 kts 24°
2026-04-25 01:18 -27.57493 -48.39553 6013 ft 239 kts 25°
2026-04-25 01:18 -27.56010 -48.38698 6013 ft 240 kts 25°
2026-04-25 01:19 -27.54525 -48.37841 6011 ft 240 kts 24°
2026-04-25 01:19 -27.52977 -48.37071 6071 ft 249 kts 19°
2026-04-25 01:19 -27.51291 -48.36321 6277 ft 271 kts 19°
2026-04-25 01:19 -27.49513 -48.35543 6714 ft 282 kts 19°
2026-04-25 01:20 -27.47672 -48.34735 7315 ft 286 kts 19°
2026-04-25 01:20 -27.45812 -48.33914 7990 ft 288 kts 19°
2026-04-25 01:20 -27.43933 -48.33082 8661 ft 292 kts 19°
2026-04-25 01:20 -27.42030 -48.32237 9350 ft 296 kts 19°
2026-04-25 01:21 -27.40101 -48.31379 10049 ft 299 kts 19°
2026-04-25 01:21 -27.38126 -48.30501 10437 ft 315 kts 18°
2026-04-25 01:21 -27.36015 -48.29565 10597 ft 337 kts 19°
2026-04-25 01:21 -27.33779 -48.28572 10893 ft 351 kts 19°
2026-04-25 01:22 -27.31489 -48.27552 11419 ft 358 kts 19°
2026-04-25 01:22 -27.29160 -48.26512 12071 ft 360 kts 19°
2026-04-25 01:22 -27.26828 -48.25471 12708 ft 364 kts 18°
2026-04-25 01:22 -27.24460 -48.24416 13332 ft 368 kts 18°
2026-04-25 01:23 -27.22056 -48.23346 13951 ft 373 kts 18°
2026-04-25 01:23 -27.19635 -48.22269 14532 ft 376 kts 18°
2026-04-25 01:23 -27.17190 -48.21181 15167 ft 379 kts 18°
2026-04-25 01:23 -27.14766 -48.20104 15801 ft 381 kts 18°
2026-04-25 01:24 -27.12257 -48.18989 16428 ft 384 kts 17°
2026-04-25 01:24 -27.09796 -48.17897 17023 ft 387 kts 17°
2026-04-25 01:24 -27.07249 -48.16767 17636 ft 390 kts 17°
2026-04-25 01:24 -27.04750 -48.15658 18214 ft 393 kts 17°
2026-04-25 01:25 -27.02200 -48.14528 18728 ft 396 kts 17°
2026-04-25 01:25 -26.99624 -48.13387 19176 ft 400 kts 17°
2026-04-25 01:25 -26.97027 -48.12236 19628 ft 404 kts 16°
2026-04-25 01:25 -26.94387 -48.11067 20069 ft 408 kts 16°
2026-04-25 01:26 -26.91737 -48.09895 20511 ft 412 kts 16°
2026-04-25 01:26 -26.89053 -48.08708 20949 ft 416 kts 16°
2026-04-25 01:26 -26.86348 -48.07516 21371 ft 419 kts 15°
2026-04-25 01:26 -26.83620 -48.06316 21792 ft 423 kts 15°
2026-04-25 01:27 -26.80868 -48.05106 22202 ft 427 kts 15°
2026-04-25 01:27 -26.78094 -48.03886 22597 ft 430 kts 15°
2026-04-25 01:27 -26.75293 -48.02655 22979 ft 434 kts 15°
2026-04-25 01:28 -26.69630 -48.00165 23712 ft 441 kts 15°
2026-04-25 01:28 -26.66765 -47.98906 24015 ft 444 kts 15°
2026-04-25 01:28 -26.63921 -47.97656 24335 ft 446 kts 15°
2026-04-25 01:28 -26.61023 -47.96384 24660 ft 449 kts 15°
2026-04-25 01:29 -26.58069 -47.95087 24988 ft 451 kts 15°
2026-04-25 01:29 -26.55141 -47.93803 25312 ft 453 kts 15°
2026-04-25 01:29 -26.52235 -47.92530 25620 ft 455 kts 15°
2026-04-25 01:29 -26.49271 -47.91231 25928 ft 458 kts 15°
2026-04-25 01:30 -26.46301 -47.89932 26228 ft 460 kts 15°
2026-04-25 01:30 -26.43301 -47.88619 26517 ft 463 kts 15°
2026-04-25 01:30 -26.40294 -47.87304 26815 ft 465 kts 15°
2026-04-25 01:30 -26.37278 -47.85986 27115 ft 467 kts 15°
2026-04-25 01:31 -26.34241 -47.84659 27403 ft 469 kts 15°
2026-04-25 01:31 -26.31196 -47.83330 27674 ft 472 kts 15°
2026-04-25 01:31 -26.28124 -47.81990 27942 ft 475 kts 15°
2026-04-25 01:31 -26.26081 -47.81099 28122 ft 476 kts 15°
2026-04-25 01:32 -26.21945 -47.79295 28520 ft 478 kts 15°
2026-04-25 01:32 -26.18850 -47.77945 28793 ft 480 kts 15°
2026-04-25 01:32 -26.16782 -47.77045 28958 ft 481 kts 14°
2026-04-25 01:32 -26.13654 -47.75683 29201 ft 484 kts 15°
2026-04-25 01:33 -26.10617 -47.73985 29417 ft 496 kts 27°
2026-04-25 01:33 -26.07756 -47.71800 29689 ft 500 kts 30°
2026-04-25 01:33 -26.04944 -47.69506 29973 ft 502 kts 31°
2026-04-25 01:33 -26.01241 -47.66428 30433 ft 499 kts 31°
2026-04-25 01:34 -25.99370 -47.64881 30818 ft 494 kts 31°
2026-04-25 01:34 -25.96626 -47.62638 31381 ft 486 kts 30°
2026-04-25 01:34 -25.93907 -47.60446 31959 ft 478 kts 30°
2026-04-25 01:34 -25.91231 -47.58311 32547 ft 471 kts 30°
2026-04-25 01:35 -25.88584 -47.56212 33151 ft 463 kts 29°
2026-04-25 01:35 -25.85972 -47.54148 33765 ft 455 kts 29°
2026-04-25 01:35 -25.83456 -47.52161 34333 ft 447 kts 29°
2026-04-25 01:35 -25.80907 -47.50149 34874 ft 439 kts 29°
2026-04-25 01:36 -25.78407 -47.48179 35024 ft 443 kts 29°
2026-04-25 01:36 -25.75915 -47.46221 35039 ft 448 kts 29°
2026-04-25 01:36 -25.70761 -47.42169 35053 ft 459 kts 29°
2026-04-25 01:37 -25.65487 -47.38016 35056 ft 471 kts 29°
2026-04-25 01:37 -25.60086 -47.33763 35055 ft 481 kts 30°
2026-04-25 01:38 -25.54569 -47.29422 35052 ft 490 kts 30°
2026-04-25 01:38 -25.49012 -47.25050 35031 ft 490 kts 30°
2026-04-25 01:39 -25.46229 -47.22864 34901 ft 493 kts 30°
2026-04-25 01:39 -25.43399 -47.20646 34395 ft 496 kts 30°
2026-04-25 01:39 -25.40605 -47.18453 33974 ft 491 kts 30°
2026-04-25 01:39 -25.37821 -47.16269 33493 ft 488 kts 30°
2026-04-25 01:40 -25.35070 -47.14112 33059 ft 483 kts 30°
2026-04-25 01:40 -25.32340 -47.11975 32637 ft 479 kts 30°
2026-04-25 01:40 -25.29636 -47.09859 32224 ft 474 kts 30°
2026-04-25 01:40 -25.26956 -47.07764 31816 ft 470 kts 30°
2026-04-25 01:41 -25.24297 -47.05688 31416 ft 466 kts 30°
2026-04-25 01:41 -25.21656 -47.03625 31020 ft 463 kts 30°
2026-04-25 01:41 -25.19066 -47.01604 30631 ft 460 kts 30°
2026-04-25 01:41 -25.16461 -46.99572 30221 ft 457 kts 30°
2026-04-25 01:42 -25.13859 -46.97571 29782 ft 453 kts 28°
2026-04-25 01:42 -25.11217 -46.95731 29360 ft 447 kts 26°
2026-04-25 01:42 -25.08553 -46.93984 28942 ft 442 kts 25°
2026-04-25 01:42 -25.05904 -46.92285 28526 ft 438 kts 25°
2026-04-25 01:43 -25.03284 -46.90606 28124 ft 434 kts 25°
2026-04-25 01:43 -25.00687 -46.88933 27724 ft 430 kts 25°
2026-04-25 01:43 -24.98123 -46.87269 27327 ft 427 kts 26°
2026-04-25 01:43 -24.95580 -46.85612 26934 ft 424 kts 26°
2026-04-25 01:44 -24.93048 -46.83957 26549 ft 421 kts 26°
2026-04-25 01:44 -24.90540 -46.82316 26155 ft 418 kts 26°
2026-04-25 01:44 -24.88048 -46.80686 25764 ft 415 kts 26°
2026-04-25 01:44 -24.85570 -46.79066 25367 ft 413 kts 26°
2026-04-25 01:45 -24.83133 -46.77473 24973 ft 411 kts 26°
2026-04-25 01:45 -24.80680 -46.75871 24582 ft 409 kts 26°
2026-04-25 01:45 -24.78234 -46.74274 24189 ft 407 kts 26°
2026-04-25 01:45 -24.75802 -46.72687 23801 ft 405 kts 26°
2026-04-25 01:46 -24.73380 -46.71108 23370 ft 404 kts 26°
2026-04-25 01:46 -24.70965 -46.69534 22952 ft 401 kts 26°
2026-04-25 01:46 -24.68574 -46.67975 22556 ft 398 kts 26°
2026-04-25 01:46 -24.66210 -46.66434 22169 ft 394 kts 26°
2026-04-25 01:47 -24.63860 -46.64904 21791 ft 390 kts 26°
2026-04-25 01:47 -24.61526 -46.63413 21404 ft 385 kts 22°
2026-04-25 01:47 -24.59026 -46.62535 21077 ft 371 kts
2026-04-25 01:47 -24.56492 -46.62408 20793 ft 361 kts 355°
2026-04-25 01:48 -24.53991 -46.62436 20437 ft 358 kts 354°
2026-04-25 01:48 -24.51720 -46.62482 20117 ft 355 kts 354°
2026-04-25 01:48 -24.49244 -46.62523 19764 ft 353 kts 355°
2026-04-25 01:48 -24.46829 -46.62546 19416 ft 351 kts 355°
2026-04-25 01:49 -24.44394 -46.62556 19061 ft 349 kts 356°
2026-04-25 01:49 -24.41962 -46.62560 18700 ft 348 kts 356°
2026-04-25 01:49 -24.39550 -46.62562 18341 ft 346 kts 356°
2026-04-25 01:49 -24.37148 -46.62564 17961 ft 344 kts 356°
2026-04-25 01:50 -24.34766 -46.62565 17595 ft 341 kts 356°
2026-04-25 01:50 -24.32398 -46.62566 17239 ft 338 kts 356°
2026-04-25 01:50 -24.30048 -46.62567 16889 ft 336 kts 356°
2026-04-25 01:50 -24.27720 -46.62569 16540 ft 333 kts 357°
2026-04-25 01:51 -24.25410 -46.62571 16199 ft 331 kts 357°
2026-04-25 01:51 -24.23110 -46.62572 15857 ft 329 kts 357°
2026-04-25 01:51 -24.20827 -46.62574 15496 ft 328 kts 357°
2026-04-25 01:51 -24.18574 -46.62575 15158 ft 327 kts 357°
2026-04-25 01:52 -24.16306 -46.62577 14819 ft 325 kts 358°
2026-04-25 01:52 -24.14050 -46.62578 14471 ft 324 kts 358°
2026-04-25 01:52 -24.11794 -46.62580 14129 ft 324 kts 358°
2026-04-25 01:52 -24.09515 -46.62582 13774 ft 323 kts 358°
2026-04-25 01:53 -24.07303 -46.62583 13405 ft 322 kts 358°
2026-04-25 01:53 -24.05070 -46.62584 13066 ft 320 kts 358°
2026-04-25 01:53 -24.02847 -46.62586 12707 ft 318 kts 358°
2026-04-25 01:53 -24.00645 -46.62587 12386 ft 316 kts 358°
2026-04-25 01:54 -23.98452 -46.62588 12055 ft 314 kts 358°
2026-04-25 01:54 -23.96274 -46.62589 11732 ft 313 kts 358°
2026-04-25 01:54 -23.94091 -46.62591 11409 ft 311 kts 358°
2026-04-25 01:54 -23.91936 -46.62592 11100 ft 310 kts 358°
2026-04-25 01:55 -23.89788 -46.62594 10776 ft 308 kts 358°
2026-04-25 01:55 -23.87644 -46.62595 10446 ft 307 kts 358°
2026-04-25 01:55 -23.85557 -46.62848 10291 ft 297 kts 341°
2026-04-25 01:55 -23.83755 -46.63841 10183 ft 286 kts 326°
2026-04-25 01:56 -23.82109 -46.65006 9909 ft 284 kts 326°
2026-04-25 01:56 -23.80456 -46.66179 9614 ft 282 kts 326°
2026-04-25 01:56 -23.78811 -46.67333 9321 ft 281 kts 326°
2026-04-25 01:56 -23.77180 -46.68473 9173 ft 275 kts 326°
2026-04-25 01:57 -23.73995 -46.70687 9108 ft 270 kts 326°
2026-04-25 01:57 -23.72400 -46.71794 9123 ft 273 kts 326°
2026-04-25 01:57 -23.70777 -46.72921 8871 ft 282 kts 326°
2026-04-25 01:58 -23.69111 -46.74077 8567 ft 283 kts 327°
2026-04-25 01:58 -23.67461 -46.75220 8243 ft 278 kts 327°
2026-04-25 01:58 -23.65847 -46.76338 7959 ft 271 kts 327°
2026-04-25 01:58 -23.64290 -46.77416 7677 ft 259 kts 327°
2026-04-25 01:59 -23.62798 -46.78450 7263 ft 256 kts 327°
2026-04-25 01:59 -23.61292 -46.79493 6951 ft 250 kts 327°
2026-04-25 01:59 -23.59867 -46.80479 6672 ft 240 kts 327°
2026-04-25 01:59 -23.58430 -46.81323 6381 ft 231 kts 344°
2026-04-25 02:00 -23.56872 -46.81354 6137 ft 223 kts 13°
2026-04-25 02:00 -23.55501 -46.80631 5917 ft 217 kts 37°
2026-04-25 02:00 -23.54514 -46.79439 5702 ft 210 kts 54°
2026-04-25 02:00 -23.53725 -46.78115 5456 ft 205 kts 56°
2026-04-25 02:01 -23.52977 -46.76818 5228 ft 199 kts 56°
2026-04-25 02:01 -23.52268 -46.75553 5007 ft 194 kts 64°
2026-04-25 02:01 -23.52178 -46.74150 4893 ft 188 kts 113°
2026-04-25 02:01 -23.52944 -46.72979 4733 ft 194 kts 129°
2026-04-25 02:02 -23.53847 -46.71921 4484 ft 186 kts 141°
2026-04-25 02:02 -23.54832 -46.71118 4268 ft 171 kts 145°
2026-04-25 02:02 -23.55778 -46.70438 4075 ft 160 kts 147°
2026-04-25 02:02 -23.56693 -46.69802 3895 ft 155 kts 147°
2026-04-25 02:03 -23.57594 -46.69176 3700 ft 153 kts 147°
2026-04-25 02:03 -23.58485 -46.68561 3518 ft 152 kts 147°
2026-04-25 02:03 -23.59393 -46.67925 3312 ft 154 kts 146°
2026-04-25 02:03 -23.60295 -46.67296 3082 ft 154 kts 147°
2026-04-25 02:04 -23.61188 -46.66677 2886 ft 153 kts 147°
2026-04-25 02:04 -23.62089 -46.66056 2683 ft 152 kts 146°
2026-04-25 02:04 -23.62940 -46.65462 2632 ft 132 kts 146°
2026-04-25 02:04 -23.63391 -46.65147 2639 ft 8 kts 148°
2026-04-25 02:05 -23.63395 -46.65145 2639 ft 2 kts 159°
2026-04-25 02:05 -23.63427 -46.65131 2638 ft 7 kts 160°
2026-04-25 02:05 -23.63464 -46.65132 2637 ft 3 kts 206°
2026-04-25 02:05 -23.63485 -46.65147 2638 ft 3 kts 217°
2026-04-25 02:06 -23.63500 -46.65166 2639 ft 3 kts 237°
2026-04-25 02:06 -23.63505 -46.65191 2640 ft 3 kts 268°
2026-04-25 02:06 -23.63494 -46.65212 2644 ft 3 kts 314°
2026-04-25 02:06 -23.63475 -46.65226 2641 ft 3 kts 327°
2026-04-25 02:07 -23.63457 -46.65240 2642 ft 3 kts 326°
2026-04-25 02:07 -23.63439 -46.65253 2642 ft 3 kts 326°
2026-04-25 02:07 -23.63422 -46.65266 2642 ft 3 kts 326°
2026-04-25 02:07 -23.63405 -46.65278 2642 ft 3 kts 326°
2026-04-25 02:08 -23.63387 -46.65292 2647 ft 3 kts 327°
2026-04-25 02:08 -23.63364 -46.65307 2643 ft 4 kts 327°
2026-04-25 02:08 -23.63334 -46.65329 2642 ft 6 kts 327°
2026-04-25 02:08 -23.63293 -46.65358 2642 ft 8 kts 328°
2026-04-25 02:09 -23.63235 -46.65397 2640 ft 11 kts 328°
2026-04-25 02:09 -23.63162 -46.65447 2638 ft 13 kts 328°
2026-04-25 02:09 -23.63085 -46.65502 2634 ft 12 kts 328°
2026-04-25 02:09 -23.62998 -46.65528 2629 ft 14 kts 338°
2026-04-25 02:10 -23.62923 -46.65576 2626 ft 13 kts 328°
2026-04-25 02:10 -23.62869 -46.65615 2625 ft 9 kts 326°
2026-04-25 02:10 -23.62817 -46.65651 2624 ft 9 kts 328°
2026-04-25 02:10 -23.62760 -46.65690 2622 ft 11 kts 328°
2026-04-25 02:11 -23.62691 -46.65738 2619 ft 12 kts 327°
2026-04-25 02:11 -23.62633 -46.65778 2617 ft 10 kts 327°
2026-04-25 02:11 -23.62576 -46.65817 2615 ft 0 kts 329°
2026-04-25 02:11 -23.62573 -46.65820 2615 ft 2 kts 322°
2026-04-25 02:12 -23.62570 -46.65835 2614 ft 3 kts 264°
2026-04-25 02:12 -23.62580 -46.65860 2614 ft 4 kts 242°
2026-04-25 02:12 -23.62589 -46.65877 2614 ft 0 kts 239°
2026-04-25 02:12 -23.62593 -46.65884 2614 ft 2 kts 237°
2026-04-25 02:13 -23.62597 -46.65891 2614 ft 1 kts 237°
2026-04-25 02:13 -23.62600 -46.65897 2614 ft 0 kts 238°
2026-04-25 02:13 -23.62601 -46.65898 2614 ft 1 kts 238°
2026-04-25 02:13 -23.62602 -46.65899 2614 ft 0 kts 238°